#timestamp,LO_Frequency,Hit,StdDev 
1654664415.1,286047005.6,N
1654664416.0,286047005.6,N
1654664435.8,286047003.8,N
1654664455.6,286047003.7,N
1654664475.5,286047003.4,N
1654664495.3,286047003.1,N
1654664515.2,286047002.9,N
1654664535.9,286047005.3,N
1654664555.7,286047005.8,Y
1654664575.6,286047000.4,P
1654664595.4,286046999.9,N
1654664615.2,286047002.8,N
1654664635.1,286047002.2,N
1654664636.0,286047002.2,N
1654664655.8,286047002.8,N
1654664675.7,286047001.9,N
1654664695.5,286047002.1,N
1654664715.3,286047001.3,N
1654664735.2,286047004.0,Y
1654664755.0,286047002.7,P
1654664755.9,286047002.7,P
1654664775.8,286047000.2,N
1654664795.6,286047000.5,N
1654664815.4,286047001.2,N
1654664835.3,286047000.5,N
1654664855.1,286047000.6,N
1654664875.9,286046998.2,N
1654664895.7,286047001.2,N
1654664915.5,286047000.1,N
1654664935.4,286047002.7,N
1654664955.2,286047001.2,N
1654664975.0,286047001.1,N
1654664976.0,286047001.1,N
1654664995.8,286046998.2,N
1654665015.6,286046998.5,N
1654665035.5,286046998.3,N
1654665055.3,286047001.1,N
1654665075.1,286047000.3,N
1654665095.9,286047001.1,N
1654665115.7,286047000.9,N
1654665135.6,286047000.4,N
1654665155.4,286047000.3,N
1654665175.3,286047000.0,N
1654665195.1,286047000.9,N
1654665196.0,286047000.9,N
1654665215.8,286046999.9,N
1654665235.7,286046999.8,N
1654665255.5,286047002.3,N
1654665275.3,286047002.0,N
1654665295.2,286047001.7,N
1654665315.0,286047004.0,Y
1654665315.9,286047004.0,P
1654665335.5,286047001.9,N
1654665355.4,286047001.9,N
1654665375.2,286047002.6,N
1654665395.0,286047001.9,N
1654665395.9,286047001.9,N
1654665415.8,286047002.2,N
1654665435.6,286047002.6,N
1654665455.5,286047002.6,Y
1654665475.3,286047001.2,P
1654665525.2,286047001.0,E
1654665535.1,286046998.4,N
1654665536.0,286046998.4,P
1654665555.8,286046998.3,P
1654665575.7,286046998.9,Y
1654665595.5,286047000.9,P
1654665615.3,286047000.6,N
1654665635.2,286046999.8,N
1654665655.0,286047000.1,N
1654665655.9,286047000.1,N
1654665675.7,286046999.9,N
1654665695.6,286046999.9,N
1654665745.5,286047002.8,E
1654665755.4,286046998.3,N
1654665775.2,286046996.6,P
1654665795.1,286046997.8,N
1654665796.0,286046997.8,Y
1654665815.8,286046998.5,P
1654665835.7,286047001.1,N
1654665855.6,286047000.5,N
1654665875.4,286047000.4,N
1654665895.3,286047000.7,N
1654665915.1,286047001.1,N
1654665916.0,286047001.1,N
1654665935.8,286047000.8,N
1654665955.7,286047001.0,N
1654665975.5,286047000.8,N
1654665995.3,286046999.3,N
1654666015.2,286046999.5,N
1654666035.0,286046999.1,N
1654666035.9,286046999.1,N
1654666055.8,286046999.0,N
1654666075.6,286046998.3,N
1654666095.4,286046998.9,N
1654666115.3,286047000.7,N
1654666135.1,286047001.2,N
1654666155.9,286046998.8,N
1654666175.7,286047001.1,N
1654666195.5,286047000.8,N
1654666215.4,286046998.6,N
1654666235.2,286046998.1,N
1654666255.0,286046998.3,N
1654666255.9,286046998.3,N
1654666275.8,286046998.8,N
1654666295.6,286046998.1,N
1654666315.5,286047000.9,N
1654666335.3,286046999.8,N
1654666355.1,286047000.3,N
1654666375.9,286047000.2,N
1654666395.7,286046999.7,N
1654666415.5,286047000.2,N
1654666435.4,286047000.1,N
1654666455.2,286046999.7,N
1654666475.1,286046999.7,N
1654666476.0,286046999.7,N
1654666495.8,286047000.2,N
1654666515.6,286047001.2,N
1654666535.5,286047000.3,N
1654666555.3,286047000.2,N
1654666575.2,286047002.8,N
1654666595.9,286047002.7,N
1654666615.7,286046999.7,N
1654666635.6,286047002.8,N
1654666655.4,286047000.9,N
1654666675.2,286046999.9,N
1654666695.1,286046999.7,N
1654666696.0,286046999.7,N
1654666715.8,286047000.1,N
1654666735.7,286047002.2,N
1654666755.5,286047000.2,N
1654666775.3,286046999.7,N
1654666795.2,286047000.1,N
1654666815.0,286047002.6,N
1654666815.9,286047002.6,N
1654666835.8,286047001.4,N
1654666855.6,286047001.7,N
1654666875.4,286047001.7,N
1654666895.3,286047001.7,N
1654666915.1,286047004.3,Y
1654666935.8,286047001.7,P
1654666955.7,286047003.9,P
1654666975.5,286047002.2,N
1654666995.4,286047002.5,N
1654667015.2,286047004.0,Y
1654667035.0,286046998.3,P
1654667035.9,286046998.3,N
1654667055.8,286046998.4,N
1654667075.6,286046998.4,N
1654667095.4,286046999.1,N
1654667115.3,286046999.1,N
1654667135.1,286046999.3,N
1654667155.9,286046996.6,N
1654667175.7,286046997.7,N
1654667195.5,286046997.1,N
1654667215.4,286046997.1,N
1654667235.2,286046999.2,N
1654667255.0,286046997.0,N
1654667256.0,286046997.0,N
1654667275.8,286046996.7,N
1654667295.6,286046997.1,N
1654667315.5,286046997.0,N
1654667335.3,286046996.6,N
1654667355.1,286046996.6,N
1654667375.9,286046996.5,N
1654667395.7,286046999.2,N
1654667415.5,286046997.1,N
1654667435.4,286046996.9,N
1654667455.5,286046996.5,N
1654667475.3,286046996.6,N
1654667495.2,286046998.8,N
1654667515.9,286046998.2,N
1654667535.7,286046998.1,N
1654667555.6,286047000.4,N
1654667575.4,286046998.1,N
1654667595.3,286046999.4,N
1654667615.1,286046999.3,N
1654667616.0,286046999.3,N
1654667635.8,286046996.6,N
1654667655.7,286046998.6,N
1654667675.5,286046998.3,N
1654667695.3,286046999.3,N
1654667715.2,286046996.6,Y
1654667735.0,286047001.0,P
1654667735.9,286047001.0,N
1654667755.8,286047000.6,N
1654667775.6,286046999.8,N
1654667795.4,286047000.4,N
1654667815.3,286047000.1,N
1654667835.1,286047001.9,N
1654667855.8,286047001.5,N
1654667875.7,286047002.4,N
1654667895.5,286047000.5,N
1654667915.4,286047002.1,N
1654667935.2,286047000.0,N
1654667955.0,286047001.5,N
1654667955.9,286047001.5,N
1654667975.8,286047002.3,N
1654667995.6,286046999.9,N
